Location: Utrecht
(52.0830°N, 5.1330°E)
Time: 08:51:24
(UTC+01:00)

Daily predictions for brighter satellites

Satellite Brightness Start Highest point End
(mag) Time Altitude Azimuth Time Altitude Azimuth Time Altitude Azimuth
Cosmos 1125 Rocket 3.6 16:58:04 10° SSW 17:03:22 75° ESE 17:08:42 10° NNE
Cosmos 1674 Rocket 3.9 17:00:04 10° SSW 17:04:32 71° WNW 17:08:59 10° N
GEOS 3 Rocket 4.3 17:01:42 10° E 17:06:13 33° NNE 17:10:48 10° NW
CZ-2C R/B 4.2 17:05:47 10° NNE 17:10:01 41° E 17:14:15 10° S
Genesis I 3.2 17:07:50 10° NW 17:11:48 68° NE 17:15:42 10° SE
Cosmos 2263 Rocket 2.8 17:08:07 10° SW 17:13:38 54° NW 17:19:13 10° NNE
ERBS 3.2 17:12:05 10° WNW 17:15:16 34° N 17:18:26 10° ENE
Okean 1 Rocket 4.2 17:12:22 10° NNW 17:16:34 48° W 17:20:45 10° SSW
MSX 4.3 17:13:26 10° SE 17:18:39 37° ENE 17:23:52 10° N
Cosmos 1544 Rocket 3.7 17:14:24 10° N 17:18:48 55° ENE 17:23:11 10° SSE
COSMOS 2487 3.2 17:16:31 10° N 17:19:49 32° ENE 17:23:05 10° ESE
IDEFIX/ARIANE 42P 2.8 17:15:56 10° SE 17:20:53 47° ENE 17:25:51 10° N
Thor Agena Rocket 4.5 17:18:26 10° NE 17:22:58 29° E 17:27:30 10° SSE
COSMO-SKYMED 1 4.5 17:22:45 10° ENE 17:24:05 11° E 17:25:25 10° ESE
CSL-04 Rocket 4.1 17:18:44 10° S 17:24:13 73° WSW 17:29:49 10° NNW
MOS 1 4.4 17:18:56 10° SE 17:24:27 57° ENE 17:30:00 10° N
SL-16 R/B 3.5 17:20:10 10° N 17:26:00 46° WNW 17:31:50 10° SW
ATLAS CENTAUR R/B 3.4 17:22:54 10° WNW 17:26:15 20° NNW 17:29:27 10° NNE
Cosmos 2251 Rocket 3.7 17:22:52 10° NNW 17:28:17 84° WSW 17:33:37 10° SSE
Cosmos 1743 4.2 17:26:11 10° NNE 17:28:53 18° ENE 17:31:34 10° ESE
Cosmos 1975 Rocket 3.0 17:24:51 10° S 17:29:09 73° E 17:33:30 10° NNE
Meteor 2-19 Rocket 4.4 17:23:11 10° N 17:29:16 74° ENE 17:35:18 10° SSE
CSL-04 Debris 4.5 17:25:24 10° S 17:30:47 74° WSW 17:36:14 10° NNW
Cosmos 1500 3.9 17:28:37 10° N 17:32:05 31° ENE 17:35:33 10° SE
USA 234 4.1 17:28:24 10° ENE 17:34:14 34° SE 17:40:04 10° SSW
Cosmos 1975 3.2 17:32:13 10° N 17:36:09 43° ENE 17:40:02 10° SSE
Cosmos 1844 Rocket 2.7 17:32:04 10° SSW 17:37:38 69° ESE 17:43:16 10° NE
Abrixas 4.2 17:36:03 10° WSW 17:38:42 30° SSW 17:41:21 10° SE
NOSS 3-4 (A) 3.9 17:36:45 10° NW 17:43:26 55° NNE 17:50:32 10° ESE
NOSS 3-4 (C) 3.9 17:36:51 10° NW 17:43:32 55° NNE 17:50:38 10° ESE
Cosmos 1484 Rocket 3.5 17:41:14 10° SE 17:44:27 28° ENE 17:47:39 10° N
CZ-4 R/B 1.4 17:40:25 10° SSE 17:44:35 84° ENE 17:48:43 10° NNW
SMAP 3.0 17:40:49 10° SSE 17:45:26 70° ENE 17:50:06 10° N
Cosmos 1536 Rocket 4.1 17:41:46 10° SSE 17:45:55 39° E 17:50:06 10° NNE
CORIOLIS 4.1 17:44:08 10° SSE 17:49:30 71° ENE 17:54:53 10° NNW
EO 1 Del DPAF 4.2 17:47:08 10° N 17:50:55 49° WNW 17:54:39 10° SW
SL-8 Rocket 4.2 17:46:32 10° NNW 17:52:42 74° W 17:58:49 10° S
YAOGAN 1 2.5 17:50:51 10° SSE 17:55:10 79° ENE 17:59:32 10° NNW
Cosmos 1809 Rocket 4.5 17:51:12 10° N 17:57:18 59° ENE 18:03:20 10° SSE
ATLAS 2AS CENTAUR R/B 4.2 17:50:35 10° NW 17:58:14 47° WSW 18:05:29 10° S
PAYLOAD A 4.5 17:54:19 10° S 17:59:10 64° WSW 18:04:15 10° NNW
SJ-12 4.0 17:56:14 10° S 18:00:21 80° WSW 18:04:31 10° NNW
Cosmos 1844 3.6 17:57:52 10° SSW 18:03:26 79° ESE 18:08:24 13° NNE
Cosmos 2366 rocket 4.2 17:59:10 10° NNW 18:05:33 80° W 18:11:52 10° S
ISS -3.1 18:02:25 10° WSW 18:05:42 64° SSE 18:07:15 28° E
Cosmos 2297 4.5 18:02:36 10° SSE 18:07:28 31° ESE 18:10:00 21° ENE
Meteor 1-18 Rocket 4.2 18:02:05 10° S 18:07:45 72° E 18:13:34 10° NNE
Cosmos 1455 Rocket 3.5 18:03:30 10° NNW 18:07:53 65° W 18:12:16 10° S
Cosmos 1934 Rocket 4.5 18:03:08 10° N 18:08:48 36° ENE 18:14:30 10° SE
Cosmos 1812 2.6 18:07:09 10° S 18:11:00 80° E 18:14:54 10° NNE
SKYMED 2 4.4 18:11:21 25° ENE 18:12:43 29° E 18:16:32 10° SSE
Cosmos 407 Rocket 4.1 18:08:52 10° NNW 18:13:29 32° NE 18:15:55 22° E
Cosmos 1238 Rocket 2.3 18:13:33 10° SSW 18:16:33 77° W 18:19:37 12° N
Cosmos 2278 Rocket 2.2 18:12:37 10° SSW 18:18:13 67° ESE 18:22:20 19° NE
ALOS 4.1 18:20:58 14° NNE 18:20:58 14° NNE 18:22:06 10° NNE
Spot 2 Rocket 4.4 18:18:43 25° ENE 18:18:59 25° ENE 18:23:07 10° N
CZ-3A R/B 3.8 18:14:46 10° WSW 18:20:20 85° SSE 18:40:30 21° ENE
Meteor 2-21 4.4 18:19:47 10° N 18:26:02 87° ENE 18:32:11 10° S
Cosmos 2239 Rocket 4.5 18:22:05 10° N 18:28:14 58° ENE 18:34:18 10° SSE
METEOR-M 4.4 18:23:32 10° SE 18:28:31 42° ENE 18:33:33 10° N
CZ-2C R/B 3.4 18:23:45 10° S 18:28:42 53° W 18:33:47 10° NNW
Okean 1 3.3 18:25:45 10° S 18:29:49 89° W 18:33:20 14° N
Okean 1-7 Rocket 3.9 18:26:56 10° SSE 18:31:10 43° E 18:32:26 34° NE
Cosmos 1833 Rocket 2.7 18:28:06 10° NNW 18:33:48 83° WSW 18:39:26 10° SSE
Resurs 01 Rocket 3.4 18:36:49 17° NNE 18:36:49 17° NNE 18:38:08 10° N
Cosmos 1726 Rocket 4.4 18:32:36 10° N 18:35:35 31° NE 18:35:35 31° NE
Cosmos 2297 Rocket 4.3 18:36:15 10° NNW 18:37:53 11° N 18:39:24 10° NNE
Cosmos 2082 Rocket 2.5 18:32:34 10° NW 18:38:13 69° WSW 18:43:51 10° SSE
Cosmos 1346 Rocket 2.6 18:34:51 10° S 18:38:44 77° ESE 18:40:20 34° NNE
BREEZE-M DEB (TANK) 3.8 18:31:44 10° W 18:39:07 66° S 18:40:15 40° ESE
Cosmos 1821 Rocket 3.8 18:33:26 10° N 18:39:32 66° ENE 18:45:35 10° SSE
Tiangong 1 3.7 18:39:17 10° S 18:40:14 11° SSE 18:40:14 11° SSE
Cosmos 2227 Rocket 4.3 18:41:20 10° NNW 18:43:08 11° N 18:44:01 11° NNE
CZ-3B DEB 2.8 18:39:08 10° SW 18:43:41 71° SE 18:49:19 28° ENE
GEOS 3 Rocket 3.5 18:39:20 13° SE 18:43:56 89° SW 18:49:06 10° NW
Meteor 2-14 Rocket 4.4 18:39:08 10° N 18:45:21 90° SW 18:51:30 10° S
Cosmos 1666 3.9 18:42:50 10° N 18:44:50 28° N 18:44:50 28° N
RESURS DK-1 4.5 18:45:54 10° N 18:47:06 15° N 18:47:06 15° N
Meteor 1-19 Rocket 4.3 18:43:43 10° S 18:49:25 60° E 18:53:30 20° NNE
Cosmos 1605 Rocket 4.1 18:43:53 10° N 18:50:01 49° ENE 18:56:02 10° SSE
ERBS 2.9 18:49:06 10° WNW 18:51:53 47° NNW 18:51:53 47° NNW
Cosmos 1606 Rocket 3.5 18:51:02 10° N 18:55:30 63° ENE 18:57:02 38° SE
Meteor 1-15 Rocket 4.3 18:49:51 10° N 18:55:45 61° ENE 19:01:31 10° SSE
Cosmos 2263 Rocket 4.3 18:55:04 10° WNW 18:58:53 18° NNW 19:02:26 11° NNE
BREEZE-M R/B 4.0 18:50:05 10° WSW 18:59:02 52° SSE 19:00:24 41° ESE
IDEFIX/ARIANE 42P 4.4 18:56:06 10° SSW 19:00:41 31° W 19:05:17 10° NNW
COSMO-SKYMED 1 2.4 18:59:56 52° NNE 19:01:00 82° ESE 19:05:20 10° SSW
Thor Agena Rocket 4.3 18:57:28 10° N 19:02:30 51° WNW 19:07:34 10° SW
Cosmos 1190 Rocket 3.8 18:58:00 10° NNW 19:03:18 79° ENE 19:06:07 28° SSE
Cosmos 1743 3.5 19:01:16 10° NNW 19:05:04 52° W 19:08:50 10° S
ATLAS CENTAUR R/B 3.6 19:04:03 10° NNW 19:06:15 16° N 19:06:15 16° N
BREEZE M DEB (TANK) 4.0 19:05:39 10° SW 19:09:54 24° S 19:09:54 24° S
Meteor 1-13 Rocket 4.3 19:04:31 10° SSW 19:10:15 84° WNW 19:15:21 14° NNE
Nadezhda 3 Rocket 4.1 19:05:01 10° SSW 19:11:15 77° WNW 19:17:35 10° N
BREEZE M DEB (TANK) 3.9 19:08:33 10° W 19:12:04 49° SSW 19:16:42 24° SE
Meteor 1-23 Rocket 4.1 19:09:25 10° S 19:15:01 60° E 19:15:03 60° E
Meteor 2-9 Rocket 4.1 19:09:57 10° NNW 19:15:28 83° W 19:20:49 10° S
USA 234 3.1 19:15:45 48° ENE 19:17:49 84° SSE 19:24:23 10° WSW
Cosmos 1844 Rocket 4.2 19:17:05 10° WSW 19:22:01 30° NW 19:25:12 18° N
Meteor 2-4 Rocket 3.4 19:17:01 10° S 19:22:22 76° E 19:22:36 75° ENE
DMSP B5D1-3 4.4 19:21:37 53° NNE 19:22:54 89° W 19:28:03 10° SSW
Cosmos 1025 Rocket 3.8 19:20:02 10° S 19:23:00 43° S 19:23:00 43° S
Cosmos 921 Rocket 3.3 19:21:51 10° SSW 19:25:44 66° WSW 19:25:44 66° WSW
SL-8 R/B 4.2 19:24:07 10° WSW 19:28:17 51° SSW 19:28:17 51° SSW
NOSS 3-4 (A) 4.4 19:27:48 10° NW 19:34:32 55° SW 19:40:51 14° SSE
NOSS 3-4 (C) 4.3 19:27:54 10° NW 19:34:38 55° SW 19:40:50 14° SSE
ISS -0.5 19:38:51 10° W 19:39:56 19° W 19:39:56 19° W
NOSS 3-3 (A) 4.4 19:39:47 10° WSW 19:46:07 61° NW 19:47:38 50° NNE
NOSS 3-3 (C) 4.4 19:39:53 10° WSW 19:46:13 61° NW 19:47:43 50° NNE
Cosmos 2297 4.1 19:45:48 10° SW 19:51:21 58° NW 19:51:58 54° NNW
Cosmos 407 Rocket 4.2 19:50:45 10° NNW 19:55:42 49° WSW 19:56:13 47° SW
Spot 2 Rocket 4.3 19:58:56 46° NW 19:58:56 46° NW 20:02:40 10° NNW
Cosmos 2278 Rocket 3.7 19:57:46 10° WSW 20:02:47 31° NW 20:04:12 28° NNW
Resurs 01 Rocket 4.3 20:14:24 13° NNW 20:14:24 13° NNW 20:14:58 10° NNW
Cosmos 2344 4.5 20:39:52 10° NW 20:48:48 57° NNE 20:48:48 57° NNE
USA 234 4.3 21:03:06 39° WNW 21:03:06 39° WNW 21:07:10 10° W
CZ-3B DEB 3.8 21:11:34 10° W 21:17:29 68° NW 21:17:29 68° NW
